Home   Weather   Boston   Past weeks

Flag for USA Past Weather in Boston, Massachusetts, USA — Yesterday and Last 2 Weeks

Now
53 °F

Sunny.


Feels Like: 49 °F
Forecast: 50 / 64 °F
Wind: 13 mph from Northwest

Location: Logan International Airport

Current Time: Sep 25, 2016 at 10:03:52 AM

Latest Report: Sep 25, 2016 at 8:54 AM


Visibility: 10 mi

Pressure: 30.14 "Hg

Humidity: 52%

Dew Point: 36 °F

Location of BostonLocation

Past Weather in Boston — Graph

°F

Boston Temperature Yesterday

Maximum temperature yesterday: 65 °F (at 4:54 PM)
Minimum temperature yesterday: 56 °F (at 4:54 AM)
Average temperature yesterday: 60 °F

High & Low Weather Summary for the Past Weeks

 TemperatureHumidityPressure
High88 °F (Sep 14, 1:54 PM)100% (Sep 19, 12:54 PM)30.37 "Hg (Sep 19, 12:54 PM)
Low49 °F (Sep 25, 5:54 AM)23% (Sep 21, 1:54 PM)29.82 "Hg (Sep 11, 8:54 AM)
Average69 °F68%30.11 "Hg
* Reported Sep 10 8:54 AM — Sep 25 8:54 AM, Boston, Weather by CustomWeather, © 2016

Note: Actual official high and low records may vary slightly from our data, if they occured in-between our weather recording intervals... More about our weather records

Advertising

Boston Weather History for the Previous 24 Hours

Scroll right to see more
 ConditionsComfort  
Time TempWeatherWind HumidityBarometerVisibility
8:54 AM
Sun, Sep 25
53 °FSunny.13 mph52%30.14 "Hg10 mi
7:54 AM51 °FSunny.12 mph56%30.14 "Hg10 mi
6:54 AM49 °FSunny.12 mph64%30.14 "Hg10 mi
5:54 AM49 °FClear.9 mph64%30.12 "Hg10 mi
4:54 AM50 °FClear.10 mph61%30.11 "Hg10 mi
3:54 AM52 °FClear.12 mph57%30.11 "Hg10 mi
2:54 AM53 °FClear.14 mph56%30.10 "Hg10 mi
1:54 AM54 °FClear.10 mph57%30.09 "Hg10 mi
12:54 AM55 °FClear.14 mph55%30.09 "Hg10 mi
11:54 PM
Sat, Sep 24
56 °FClear.13 mph53%30.09 "Hg10 mi
10:54 PM57 °FClear.8 mph47%30.10 "Hg10 mi
9:54 PM59 °FClear.9 mph44%30.10 "Hg10 mi
8:54 PM60 °FClear.8 mph42%30.10 "Hg10 mi
7:54 PM61 °FPassing clouds.13 mph41%30.09 "Hg10 mi
6:54 PM62 °FPassing clouds.12 mph39%30.07 "Hg10 mi
5:54 PM64 °FPassing clouds.17 mph37%30.06 "Hg10 mi
4:54 PM65 °FPassing clouds.14 mph34%30.04 "Hg10 mi
3:54 PM62 °FScattered clouds.8 mph52%30.05 "Hg10 mi
2:54 PM61 °FPartly sunny.13 mph56%30.06 "Hg10 mi
1:54 PM63 °FPartly sunny.12 mph48%30.07 "Hg10 mi
12:54 PM63 °FScattered clouds.7 mph45%30.09 "Hg10 mi
11:54 AM63 °FScattered clouds.9 mph47%30.11 "Hg10 mi
10:54 AM61 °FPassing clouds.10 mph52%30.11 "Hg10 mi
Weather by CustomWeather, © 2016

See weather overviewHow to use our weather pages